Location: Newark
(51.3000°N, 178.2000°W)
Time: 01:05:43
(UTC+00:00)

ISS - Pass Details

Date: 13 May 2021
Orbit: 417 x 422 km, 51.6° (Epoch: 15 June)

Event Time Altitude Azimuth Distance (km) Brightness Sun altitude
Exits shadow 10:54:29 12° 82° (E) 1,394 -1.2 -19.2°
Drops below altitude 10° 10:54:47 10° 81° (E) 1,508 -1.0 -19.2°
Sets 10:56:55 0° 76° (ENE) 2,376 0.1 -19.3°
